| time (UTC) | temp F | wind direction | speed MPH | gust MPH | rain 1hr in | rain 24hr in | rain mn in | humidity % | barometer mb |
| 20260506204527 | 52 | 71 | 4.0 | 12.0 | 0.00 | 1.20 | 1.20 | 88 | 1016.3 |
| 20260506203009 | 51 | 359 | 5.0 | 13.0 | 0.01 | 1.20 | 1.20 | 89 | 1016.5 |
| 20260506201547 | 51 | 260 | 4.0 | 11.0 | 0.02 | 1.20 | 1.20 | 90 | 1016.9 |
| 20260506200039 | 51 | 4 | 5.0 | 14.0 | 0.07 | 1.20 | 1.20 | 90 | 1017.4 |
| 20260506194513 | 51 | 61 | 4.0 | 9.0 | 0.09 | 1.20 | 1.20 | 90 | 1017.7 |
| 20260506193057 | 51 | 78 | 0.0 | 3.0 | 0.10 | 1.19 | 1.19 | 90 | 1018.8 |
| 20260506191535 | 50 | 26 | 2.0 | 6.0 | 0.09 | 1.17 | 1.17 | 89 | 1018.4 |
| 20260506190015 | 50 | 273 | 0.0 | 4.0 | 0.06 | 1.12 | 1.12 | 89 | 1019.3 |
| 20260506184551 | 50 | 260 | 3.0 | 12.0 | 0.06 | 1.11 | 1.11 | 89 | 1018.4 |
| 20260506183035 | 50 | 297 | 5.0 | 13.0 | 0.05 | 1.09 | 1.09 | 88 | 1018.1 |
| 20260506181518 | 50 | 314 | 3.0 | 6.0 | 0.05 | 1.09 | 1.08 | 87 | 1019.5 |
| 20260506180051 | 50 | 307 | 2.0 | 6.0 | 0.04 | 1.08 | 1.07 | 86 | 1018.6 |
| 20260506174536 | 51 | 56 | 2.0 | 11.0 | 0.02 | 1.06 | 1.05 | 86 | 1018.8 |
| 20260506173011 | 51 | 354 | 2.0 | 8.0 | 0.01 | 1.05 | 1.04 | 85 | 1019.1 |
| 20260506171557 | 51 | 12 | 3.0 | 11.0 | 0.00 | 1.05 | 1.03 | 84 | 1018.5 |
| 20260506170030 | 52 | 276 | 2.0 | 8.0 | 0.00 | 1.05 | 1.03 | 83 | 1018.4 |
| 20260506164514 | 52 | 299 | 2.0 | 8.0 | 0.00 | 1.05 | 1.03 | 83 | 1018.2 |
| 20260506163106 | 51 | 341 | 3.0 | 13.0 | 0.00 | 1.05 | 1.03 | 82 | 1018.3 |
| 20260506161535 | 51 | 30 | 2.0 | 11.0 | 0.00 | 1.08 | 1.03 | 82 | 1017.9 |
| 20260506160019 | 51 | 354 | 3.0 | 8.0 | 0.00 | 1.08 | 1.03 | 85 | 1017.5 |
| 20260506154554 | 50 | 310 | 4.0 | 10.0 | 0.00 | 1.08 | 1.03 | 85 | 1018.1 |
| 20260506153035 | 50 | 52 | 3.0 | 10.0 | 0.00 | 1.08 | 1.03 | 87 | 1017.5 |
| 20260506151511 | 49 | 170 | 4.0 | 11.0 | 0.00 | 1.12 | 1.03 | 87 | 1018.1 |
| 20260506150049 | 49 | 56 | 4.0 | 12.0 | 0.00 | 1.12 | 1.03 | 88 | 1017.8 |
| 20260506144532 | 49 | 303 | 3.0 | 12.0 | 0.00 | 1.12 | 1.03 | 89 | 1017.9 |
| 20260506143006 | 49 | 322 | 2.0 | 12.0 | 0.00 | 1.12 | 1.03 | 90 | 1017.5 |
| 20260506141603 | 48 | 324 | 1.0 | 11.0 | 0.00 | 1.15 | 1.03 | 91 | 1017.2 |
| 20260506140022 | 48 | 347 | 2.0 | 10.0 | 0.00 | 1.15 | 1.03 | 91 | 1017.1 |
| 20260506134507 | 48 | 295 | 5.0 | 14.0 | 0.02 | 1.15 | 1.03 | 91 | 1017.8 |
| 20260506133042 | 49 | 268 | 4.0 | 12.0 | 0.04 | 1.15 | 1.03 | 92 | 1017.5 |
| 20260506131528 | 49 | 322 | 1.0 | 8.0 | 0.17 | 1.22 | 1.03 | 92 | 1017.2 |
| 20260506130100 | 48 | 239 | 1.0 | 10.0 | 0.21 | 1.22 | 1.03 | 92 | 1016.9 |
| 20260506130014 | 48 | 221 | 1.0 | 10.0 | 0.21 | 1.22 | 1.03 | 92 | 1017.0 |
| 20260506124547 | 49 | 293 | 1.0 | 9.0 | 0.35 | 1.21 | 1.02 | 92 | 1016.4 |
| 20260506123040 | 48 | 115 | 2.0 | 12.0 | 0.38 | 1.18 | 0.99 | 92 | 1016.5 |
| 20260506121515 | 49 | 292 | 4.0 | 14.0 | 0.23 | 1.07 | 0.85 | 91 | 1016.6 |
| 20260506120116 | 49 | 286 | 1.0 | 9.0 | 0.22 | 1.05 | 0.82 | 91 | 1015.6 |
| 20260506114528 | 49 | 285 | 1.0 | 10.0 | 0.17 | 0.90 | 0.67 | 92 | 1015.1 |
| 20260506113010 | 49 | 16 | 2.0 | 16.0 | 0.14 | 0.84 | 0.61 | 92 | 1014.3 |
| 20260506111544 | 49 | 36 | 3.0 | 16.0 | 0.14 | 0.84 | 0.61 | 92 | 1014.3 |
| 20260506110029 | 49 | 118 | 1.0 | 9.0 | 0.14 | 0.82 | 0.60 | 92 | 1014.4 |
| 20260506104508 | 49 | 332 | 4.0 | 16.0 | 0.05 | 0.73 | 0.50 | 92 | 1014.2 |
| 20260506103042 | 49 | 359 | 3.0 | 16.0 | 0.02 | 0.70 | 0.47 | 91 | 1013.7 |
| 20260506101522 | 50 | 8 | 8.0 | 16.0 | 0.02 | 0.70 | 0.47 | 91 | 1013.2 |
| 20260506100004 | 50 | 51 | 4.0 | 13.0 | 0.00 | 0.68 | 0.45 | 92 | 1013.1 |
| 20260506094547 | 50 | 130 | 2.0 | 18.0 | 0.03 | 0.68 | 0.45 | 92 | 1013.4 |
| 20260506093039 | 50 | 41 | 3.0 | 16.0 | 0.11 | 0.68 | 0.45 | 92 | 1013.6 |
| 20260506091600 | 50 | 60 | 5.0 | 15.0 | 0.11 | 0.68 | 0.45 | 91 | 1013.7 |
| 20260506091502 | 50 | 304 | 3.0 | 15.0 | 0.11 | 0.68 | 0.45 | 91 | 1013.5 |
| 20260506090043 | 50 | 325 | 3.0 | 21.0 | 0.13 | 0.68 | 0.45 | 92 | 1012.8 |
| 20260506084521 | 51 | 199 | 4.0 | 13.0 | 0.10 | 0.65 | 0.42 | 92 | 1014.3 |
| 20260506083100 | 51 | 335 | 3.0 | 16.0 | 0.02 | 0.56 | 0.34 | 92 | 1013.2 |
| 20260506083002 | 51 | 263 | 4.0 | 16.0 | 0.02 | 0.56 | 0.34 | 92 | 1013.3 |
| 20260506081536 | 51 | 280 | 4.0 | 23.0 | 0.02 | 0.56 | 0.34 | 91 | 1012.4 |
| 20260506073039 | 53 | 328 | 5.0 | 21.0 | 0.30 | 0.55 | 0.32 | 91 | 1011.6 |
| 20260506071523 | 54 | 332 | 5.0 | 16.0 | 0.32 | 0.55 | 0.32 | 92 | 1010.9 |
| 20260506070114 | 54 | 272 | 3.0 | 15.0 | 0.31 | 0.54 | 0.31 | 91 | 1010.5 |
| 20260506061553 | 58 | 320 | 5.0 | 14.0 | 0.00 | 0.23 | 0.00 | 89 | 1010.4 |
| 20260506044557 | 71 | 169 | 2.0 | 6.0 | 0.00 | 0.23 | 0.23 | 90 | 1008.1 |
| 20260506043027 | 71 | 153 | 0.0 | 6.0 | 0.00 | 0.23 | 0.23 | 90 | 1008.8 |
| 20260506041507 | 71 | 153 | 2.0 | 4.0 | 0.00 | 0.23 | 0.23 | 90 | 1008.9 |
| 20260506040047 | 71 | 175 | 1.0 | 4.0 | 0.00 | 0.23 | 0.23 | 89 | 1008.6 |
| 20260506034529 | 71 | 184 | 1.0 | 3.0 | 0.00 | 0.23 | 0.23 | 89 | 1008.4 |
| 20260506033009 | 71 | 73 | 0.0 | 8.0 | 0.00 | 0.23 | 0.23 | 89 | 1008.1 |
| 20260506031556 | 71 | 147 | 0.0 | 3.0 | 0.00 | 0.23 | 0.23 | 89 | 1008.0 |
| 20260506030029 | 71 | 35 | 0.0 | 4.0 | 0.00 | 0.23 | 0.23 | 89 | 1008.4 |
| 20260506024507 | 71 | 179 | 1.0 | 6.0 | 0.00 | 0.23 | 0.23 | 90 | 1008.5 |
| 20260506023045 | 71 | 83 | 1.0 | 3.0 | 0.00 | 0.23 | 0.23 | 89 | 1008.2 |
| 20260506021527 | 71 | 95 | 1.0 | 3.0 | 0.00 | 0.23 | 0.23 | 89 | 1008.3 |
| 20260506020007 | 71 | 105 | 0.0 | 3.0 | 0.00 | 0.23 | 0.23 | 89 | 1008.2 |
| 20260506014550 | 71 | 73 | 0.0 | 3.0 | 0.00 | 0.23 | 0.23 | 89 | 1008.0 |
| 20260506013027 | 71 | 87 | 1.0 | 3.0 | 0.00 | 0.23 | 0.23 | 88 | 1007.9 |
| 20260506011515 | 71 | 18 | 0.0 | 3.0 | 0.00 | 0.23 | 0.23 | 89 | 1008.0 |
| 20260506010054 | 71 | 77 | 0.0 | 3.0 | 0.00 | 0.23 | 0.23 | 88 | 1007.9 |
| 20260506004539 | 71 | 51 | 1.0 | 4.0 | 0.00 | 0.23 | 0.23 | 88 | 1007.5 |
| 20260506003010 | 71 | 131 | 1.0 | 3.0 | 0.00 | 0.23 | 0.23 | 88 | 1007.0 |
| 20260506001545 | 71 | 77 | 0.0 | 3.0 | 0.00 | 0.23 | 0.23 | 88 | 1007.7 |
| 20260506000026 | 72 | 89 | 1.0 | 3.0 | 0.00 | 0.23 | 0.23 | 88 | 1007.6 |
| 20260505234507 | 72 | 75 | 1.0 | 3.0 | 0.00 | 0.23 | 0.23 | 87 | 1007.4 |
| 20260505233048 | 72 | 60 | 1.0 | 5.0 | 0.00 | 0.23 | 0.23 | 87 | 1007.1 |
| 20260505231527 | 72 | 92 | 0.0 | 4.0 | 0.00 | 0.23 | 0.23 | 87 | 1007.6 |
| 20260505230013 | 72 | 67 | 0.0 | 3.0 | 0.00 | 0.23 | 0.23 | 87 | 1007.5 |
| 20260505224550 | 72 | 75 | 0.0 | 4.0 | 0.00 | 0.23 | 0.23 | 87 | 1007.3 |
| 20260505223030 | 71 | 78 | 1.0 | 4.0 | 0.00 | 0.23 | 0.23 | 88 | 1007.4 |
| 20260505221511 | 71 | 135 | 2.0 | 4.0 | 0.00 | 0.23 | 0.23 | 89 | 1007.3 |
| 20260505220109 | 70 | 97 | 1.0 | 4.0 | 0.00 | 0.23 | 0.23 | 89 | 1007.5 |
| 20260505214535 | 70 | 91 | 0.0 | 2.0 | 0.00 | 0.23 | 0.23 | 90 | 1007.8 |
| 20260505213006 | 69 | 180 | 1.0 | 5.0 | 0.00 | 0.23 | 0.23 | 91 | 1007.8 |
| 20260505211544 | 69 | 179 | 2.0 | 7.0 | 0.00 | 0.23 | 0.23 | 91 | 1008.1 |
| 20260505210022 | 68 | 171 | 3.0 | 7.0 | 0.00 | 0.23 | 0.23 | 91 | 1008.4 |